GFSNIL_sfc_30mbdewp_066.txt.gz
Dewpoint
52 53 52 51 51 52 53 55 58 58 57 57 56 55 54 53 52 50 48 48 47 46
52 52 53 53 53 54 56 57 57 57 57 56 55 53 52 51 49 48 48 47 45 43
51 52 55 56 55 56 58 58 57 57 56 54 52 51 50 49 47 46 44 44 42 41
52 55 56 57 58 58 59 59 58 56 53 52 50 49 49 47 45 44 43 42 42 41
57 58 58 58 58 58 57 56 55 53 51 50 49 47 46 44 43 42 41 41 41 41
57 58 58 58 57 56 55 52 51 50 49 48 46 45 44 43 42 42 42 41 40 39
58 57 56 55 53 52 51 50 49 48 47 45 44 44 43 42 42 41 40 40 40 41
53 54 52 50 49 48 48 47 46 45 44 44 43 43 42 41 40 39 40 41 40 39
49 49 48 47 47 46 45 44 44 43 43 43 42 41 40 40 40 41 39 38 30 29
48 47 46 45 45 43 43 43 42 42 41 40 40 40 40 40 39 36 30 26 25 24
46 45 44 43 42 42 42 41 41 40 39 39 39 39 38 35 30 26 26 24 22 21
45 43 42 42 41 40 39 39 38 38 36 35 36 35 30 26 25 23 20 20 21 22
43 42 41 41 40 39 39 39 38 33 29 27 27 27 26 23 20 17 16 20 20 20
42 41 41 41 41 39 35 34 31 28 26 26 26 25 23 21 18 16 17 18 18 19

GFSNIL_sfc_30mbdewp_069.txt.gz
Dewpoint
48 48 50 52 52 52 51 52 54 57 57 57 57 56 55 54 53 52 51 50 49 48
49 49 50 52 53 53 53 53 55 56 57 57 57 57 56 54 53 51 50 49 49 47
49 51 52 53 54 54 54 55 56 57 57 56 56 54 53 52 50 49 48 47 46 45
49 51 53 53 54 55 57 57 57 57 57 56 54 53 51 50 48 47 46 45 45 43
50 51 52 53 56 57 57 58 58 57 56 53 52 51 50 48 46 46 45 44 42 41
50 51 52 55 57 57 57 56 56 55 53 51 50 48 47 46 45 44 43 42 42 42
52 54 55 57 58 58 56 54 52 52 51 50 47 46 45 45 43 43 42 42 41 41
54 55 57 57 56 54 53 51 50 48 47 46 45 44 44 43 42 41 41 41 41 38
56 56 55 54 51 51 49 48 47 46 45 44 44 43 42 41 41 40 41 39 31 30
53 52 51 50 48 47 46 45 45 44 43 42 42 41 40 41 41 39 35 29 27 23
49 48 47 47 46 44 44 43 42 42 42 41 40 40 39 37 31 28 26 24 22 21
47 46 45 44 43 43 43 42 41 41 40 39 38 37 33 29 26 23 20 21 21 21
46 45 44 43 42 41 41 40 37 35 36 36 34 31 29 26 22 19 18 20 19 20
45 44 43 42 40 40 39 34 32 29 28 28 28 27 25 22 19 17 16 16 16 18

GFSNIL_sfc_30mbdewp_072.txt.gz
Dewpoint
48 48 48 48 48 49 49 49 50 52 55 55 56 56 55 55 54 54 53 52 50 50
49 48 48 49 51 51 51 52 52 52 53 55 56 56 55 55 55 53 52 51 50 49
49 49 49 49 50 52 53 53 53 53 54 55 56 56 56 56 55 53 51 50 49 48
49 49 50 50 52 53 54 53 54 54 55 56 56 55 54 54 52 51 49 48 48 47
49 49 50 50 51 52 53 55 55 55 56 56 56 53 53 51 50 50 48 47 46 45
49 49 49 49 51 52 54 55 55 56 56 55 54 53 52 51 49 48 48 46 44 43
49 49 49 50 51 54 55 56 56 55 54 53 52 51 50 48 47 46 45 44 43 42
49 49 49 51 54 55 56 56 56 54 53 52 50 49 48 46 45 44 43 43 42 41
50 51 52 54 55 56 56 55 53 51 50 48 47 45 45 44 43 43 42 37 33 33
52 52 54 55 54 52 52 50 49 47 47 45 44 43 43 42 42 41 35 31 28 26
54 54 52 51 50 49 48 48 47 45 44 43 41 41 40 38 35 32 30 28 25 26
53 50 49 48 47 45 45 44 43 43 42 40 38 37 35 32 29 26 23 23 23 22
49 48 48 46 44 44 43 41 40 39 39 37 34 33 31 28 25 22 21 21 21 21
48 47 46 44 42 41 38 36 34 33 33 33 32 31 29 26 23 21 18 16 16 20

GFSNIL_sfc_30mbdewp_075.txt.gz
Dewpoint
51 50 49 48 48 48 48 50 51 53 53 54 55 56 56 56 57 56 56 55 54 53
50 50 49 50 50 50 51 51 51 52 52 53 54 55 56 56 56 56 56 56 56 53
50 50 50 50 50 51 51 51 51 51 52 52 53 55 56 56 56 56 54 54 53 51
51 50 50 50 50 51 52 52 52 52 53 53 54 55 56 56 56 55 55 52 52 50
51 51 50 50 50 51 51 51 52 52 52 54 55 56 56 55 55 54 52 50 49 49
51 51 50 50 50 50 51 52 53 53 54 54 55 56 56 55 53 52 51 50 49 48
51 51 51 51 51 51 52 52 52 53 53 54 55 55 54 52 51 51 50 49 48 47
51 51 51 51 51 51 52 52 52 53 54 55 55 53 52 52 50 48 46 45 45 44
50 50 50 50 51 51 52 52 53 54 54 53 53 51 51 50 48 46 44 41 39 39
50 50 50 50 50 52 53 54 54 54 54 52 50 48 48 46 45 44 40 37 34 31
50 50 50 51 52 53 55 55 52 51 50 48 46 44 43 43 41 37 35 33 32 30
51 51 52 53 52 51 50 49 47 46 45 44 41 40 39 37 34 31 30 29 28 25
53 51 50 49 48 47 47 45 43 42 41 40 36 35 34 33 30 28 26 25 25 24
51 50 49 47 45 44 41 38 36 35 35 35 34 33 32 31 30 26 23 21 21 23

GFSNIL_sfc_30mbdewp_078.txt.gz
Dewpoint
54 53 54 54 53 51 51 50 51 53 52 53 52 53 53 54 54 55 55 55 55 54
54 53 52 53 53 52 51 51 52 53 53 53 53 52 53 53 53 54 55 55 56 56
52 53 52 53 53 52 52 51 52 52 53 52 52 52 51 51 52 52 54 57 57 56
51 52 53 53 53 52 52 51 50 51 51 50 50 50 51 51 52 52 54 57 56 55
52 51 53 54 53 54 53 52 51 50 49 50 50 50 51 52 54 55 55 55 54 54
52 51 51 51 52 52 51 51 51 51 51 50 50 50 51 54 55 54 52 54 54 52
52 52 52 51 50 50 50 49 49 51 51 51 51 50 53 54 55 55 55 54 52 52
51 51 52 51 51 51 51 50 50 51 51 52 52 52 53 54 54 54 54 52 51 51
51 51 51 51 51 51 52 51 51 51 52 52 52 53 53 54 54 54 52 48 46 46
52 52 51 51 51 51 51 51 51 52 52 51 52 53 51 52 54 52 49 44 41 39
51 51 51 51 51 51 51 51 52 52 51 51 53 52 50 49 50 46 43 40 38 35
51 51 51 51 51 51 52 53 53 54 54 54 51 47 44 44 40 37 35 34 33 32
50 51 51 51 52 53 54 53 49 46 46 45 43 40 40 39 34 31 30 30 30 31
51 52 53 53 51 48 45 42 39 37 36 36 36 36 36 34 32 30 28 27 27 29

GFSNIL_sfc_30mbdewp_081.txt.gz
Dewpoint
55 55 54 53 51 51 50 49 50 51 50 52 53 53 55 55 54 57 56 56 54 52
55 55 54 53 53 52 51 50 49 50 51 51 52 53 54 54 53 55 54 55 56 54
55 55 55 55 55 54 53 52 50 52 51 52 51 51 52 52 53 54 54 56 55 55
54 55 55 55 56 56 55 54 52 52 52 52 52 52 52 52 53 53 53 54 54 55
54 54 55 55 55 56 55 54 53 53 53 52 52 53 53 53 52 52 52 52 53 56
54 53 54 55 55 55 55 54 54 53 52 51 52 53 53 53 52 52 52 53 54 55
54 54 53 54 54 54 54 54 53 53 52 52 52 52 51 51 52 52 52 54 55 54
54 54 53 53 53 54 54 54 54 53 53 53 52 52 52 51 51 51 53 54 55 55
52 53 53 53 53 53 53 53 53 52 52 52 52 51 50 51 52 52 54 54 54 54
52 53 53 53 53 53 53 53 52 52 52 52 52 51 50 49 52 54 54 53 53 49
53 53 53 53 52 53 53 53 53 53 53 53 53 51 51 50 52 53 53 53 49 45
51 52 53 53 53 53 53 53 53 54 53 53 53 49 49 50 50 46 42 40 39 38
51 52 52 53 53 54 53 53 53 53 51 48 51 46 46 46 41 37 33 33 33 33
50 51 52 52 53 53 52 48 44 40 37 37 39 38 39 38 36 32 30 29 29 30

GFSNIL_sfc_30mbdewp_084.txt.gz
Dewpoint
54 52 51 51 49 48 48 48 50 52 53 53 54 54 55 54 53 52 54 54 53 52
55 54 53 52 51 49 48 48 49 52 52 51 52 53 53 54 52 53 53 53 53 53
55 55 54 54 52 50 49 48 49 51 51 52 52 52 52 52 53 53 55 55 54 54
55 56 55 55 54 52 50 50 49 50 50 50 50 50 51 51 50 52 53 54 54 54
55 55 55 55 55 54 52 50 50 49 49 49 50 51 51 50 49 49 51 53 54 55
55 55 55 55 56 56 54 53 51 50 50 50 50 50 50 50 50 51 50 51 53 53
55 55 55 55 55 56 57 56 55 54 53 52 52 52 51 51 52 52 52 52 53 53
54 55 55 55 55 55 55 56 55 54 53 53 53 52 52 51 51 52 52 53 53 53
53 54 54 54 55 55 55 55 55 54 54 53 52 51 50 51 52 52 51 51 52 53
51 52 54 54 54 54 55 55 54 54 53 53 53 51 50 49 51 52 52 52 52 53
53 52 53 54 53 53 53 54 54 54 54 54 53 52 50 49 50 51 52 52 53 53
53 53 53 53 53 54 54 54 53 53 53 53 53 51 50 48 50 51 49 46 45 47
52 53 53 53 54 54 54 54 54 54 52 50 53 48 47 47 48 44 38 34 33 34
52 52 53 53 54 54 54 53 48 44 40 40 41 42 43 44 42 37 33 31 30 30

GFSNIL_sfc_30mbdewp_087.txt.gz
Dewpoint
52 50 49 47 46 47 48 48 51 53 54 53 54 55 55 54 54 55 54 54 54 53
53 51 50 49 47 46 48 48 50 52 54 54 54 54 55 54 53 54 53 53 53 53
54 52 51 50 49 48 47 48 48 51 52 53 53 53 53 54 54 53 53 54 53 52
55 53 53 51 50 50 49 49 48 49 51 51 51 52 52 51 52 53 52 52 53 52
54 55 54 53 52 51 50 49 48 49 50 51 51 51 51 50 50 51 52 52 53 53
53 54 56 54 54 53 51 50 49 49 49 48 49 49 50 50 50 50 50 51 52 52
53 53 54 56 55 55 54 52 50 49 49 48 47 48 49 49 50 50 50 49 50 51
54 54 54 53 55 55 55 54 52 50 49 48 47 46 47 49 49 50 49 49 50 51
55 55 55 54 54 54 55 56 55 53 52 50 49 48 48 48 49 49 49 50 51 52
53 55 55 55 55 55 54 54 56 56 55 54 53 51 49 49 51 51 51 51 51 52
51 53 54 54 55 55 55 55 54 55 55 55 55 53 51 49 50 52 52 52 52 52
54 53 52 54 54 54 54 54 55 55 55 54 54 52 51 49 50 50 51 49 47 51
47 54 55 53 53 54 54 53 54 54 55 55 54 53 51 49 52 50 44 38 38 40
42 44 47 52 54 54 54 54 53 49 41 40 40 40 42 46 47 46 38 34 32 32

GFSNIL_sfc_30mbdewp_090.txt.gz
Dewpoint
52 50 50 49 50 51 50 50 50 50 49 50 52 52 52 51 51 51 52 51 51 51
52 51 50 49 49 50 50 50 50 51 50 50 52 54 53 52 51 53 53 53 53 52
53 51 51 50 47 48 49 50 50 52 52 52 52 53 54 53 53 53 53 54 53 53
54 52 51 50 48 47 48 49 49 50 52 53 53 53 53 53 54 53 52 53 53 53
54 53 52 51 50 49 47 48 48 49 50 51 52 52 52 51 51 53 52 52 52 52
55 54 53 52 51 50 49 48 48 48 48 49 50 50 50 51 50 50 51 52 51 51
54 55 54 53 53 52 51 50 49 48 48 48 48 49 49 50 49 50 50 50 51 51
53 53 54 55 54 54 53 51 50 49 49 49 48 48 48 49 49 49 49 50 50 50
53 53 53 53 55 55 54 54 52 51 50 49 49 48 46 47 47 47 48 48 49 49
55 54 54 54 54 54 55 55 55 53 52 50 50 48 46 45 46 46 47 47 48 48
53 55 55 54 54 54 54 54 54 55 54 53 52 50 48 46 46 46 46 47 48 49
47 50 53 55 55 55 54 54 54 54 55 55 54 53 51 49 49 49 49 50 51 51
42 45 45 47 51 56 55 55 56 55 55 54 55 55 52 51 53 52 51 51 46 44
36 38 39 42 43 44 48 55 55 54 43 38 35 38 38 47 51 52 51 48 36 34

GFSNIL_sfc_30mbdewp_093.txt.gz
Dewpoint
52 51 51 51 52 52 52 53 53 54 54 54 54 54 53 53 51 51 50 49 50 49
53 52 50 51 52 52 52 51 52 52 52 53 53 54 54 52 51 52 52 50 49 50
53 51 51 50 50 51 51 51 51 51 50 50 52 53 54 53 52 51 51 52 52 52
53 51 51 50 49 50 50 50 50 50 51 50 50 52 52 51 52 51 50 52 51 51
54 52 51 51 49 48 49 50 50 50 50 50 51 51 51 52 52 51 50 51 51 51
54 53 52 51 50 48 48 48 49 49 50 50 51 52 52 51 51 52 52 52 51 51
54 54 53 52 51 50 49 48 48 48 49 49 50 51 52 52 51 51 51 52 52 51
55 55 54 53 52 52 51 50 49 48 48 48 48 49 49 50 49 50 50 50 50 51
54 54 54 55 53 53 52 52 51 50 49 48 48 47 46 48 48 48 48 48 49 50
54 54 54 54 54 55 54 54 52 51 51 50 49 48 47 46 47 47 48 48 48 48
47 50 53 55 54 54 54 55 55 54 53 52 51 49 47 46 47 47 48 48 48 48
41 44 45 48 50 55 54 54 55 55 55 55 53 52 49 47 47 47 48 48 47 47
36 38 39 41 43 45 48 53 55 54 54 52 48 36 38 44 50 49 48 48 48 46
31 33 33 34 36 39 42 43 41 36 33 32 31 32 33 35 39 48 50 49 45 33

GFSNIL_sfc_30mbdewp_096.txt.gz
Dewpoint
52 51 51 52 53 53 54 54 56 56 55 55 54 54 54 52 52 53 52 51 48 49
52 51 51 51 52 53 53 54 54 55 54 52 53 54 53 52 51 53 53 51 50 48
52 52 51 51 52 52 53 53 53 53 53 53 52 54 54 53 52 52 51 51 50 50
52 52 51 50 51 51 51 51 52 52 52 52 53 54 54 53 53 51 51 51 51 51
53 52 51 50 50 50 51 51 51 51 51 51 51 52 53 53 53 53 52 51 51 50
53 52 51 51 50 49 50 50 50 50 51 51 51 50 51 52 52 51 52 52 51 50
53 53 52 51 50 49 48 49 49 50 50 50 50 51 51 50 50 51 51 51 51 50
53 54 53 52 51 50 49 48 48 49 49 49 50 50 50 51 51 50 50 50 51 51
54 54 54 53 52 52 51 50 49 48 48 48 48 48 49 50 50 51 51 50 50 51
52 54 54 55 54 53 52 52 51 50 49 48 48 47 47 46 48 49 49 49 49 48
43 45 46 50 53 54 55 54 53 52 51 51 51 49 47 46 46 47 47 48 48 48
38 39 40 41 42 44 45 52 55 55 54 53 52 37 42 46 47 48 48 49 48 48
33 34 34 36 37 39 42 42 43 38 34 34 35 34 36 39 45 48 49 49 49 42
31 31 32 33 34 35 36 36 33 31 30 30 31 32 33 34 39 41 38 34 32 31

GFSNIL_sfc_30mbdewp_099.txt.gz
Dewpoint
54 53 53 53 52 53 54 54 57 58 58 57 56 55 55 54 53 53 53 53 53 52
54 53 52 52 53 54 55 55 57 57 57 56 55 55 54 53 52 52 53 52 52 53
54 53 53 53 53 54 54 55 55 55 54 54 54 54 54 53 52 52 53 53 53 52
53 53 53 53 53 53 53 54 54 54 54 53 53 54 53 52 52 50 49 51 53 52
54 53 52 52 53 53 53 53 54 53 53 53 52 53 53 53 52 51 50 50 51 51
53 53 52 52 52 52 52 53 53 53 52 52 53 53 54 53 53 52 52 52 51 51
53 53 53 52 52 51 52 52 52 52 52 53 52 52 53 53 53 53 53 53 53 52
54 54 53 53 52 51 51 51 51 51 51 52 52 52 52 51 51 52 52 52 52 53
54 54 54 53 53 52 51 51 50 50 50 51 51 50 50 51 52 51 51 50 51 51
48 49 51 54 53 53 53 52 51 50 50 50 50 48 48 48 50 51 51 51 51 51
41 42 43 44 45 46 49 53 52 52 51 51 44 39 44 46 48 50 50 51 51 51
36 36 38 39 40 41 44 43 39 38 40 43 35 35 36 41 45 47 48 49 49 44
33 33 35 36 37 38 39 36 35 33 32 32 32 33 35 37 43 46 46 35 33 32
31 31 32 33 34 35 34 33 31 30 29 29 30 31 32 35 38 37 32 30 28 29

GFSNIL_sfc_30mbdewp_102.txt.gz
Dewpoint
56 56 54 54 52 53 53 54 55 56 58 58 58 57 56 55 55 55 54 55 54 52
57 55 54 53 54 53 54 54 56 57 58 58 57 57 57 56 55 54 54 55 55 54
56 56 54 54 54 54 55 55 56 57 57 57 56 56 56 55 55 54 54 54 54 53
56 55 54 54 54 54 55 55 55 55 56 55 55 55 55 54 53 53 53 53 53 52
56 55 54 54 54 54 53 54 55 55 55 54 54 55 55 54 53 52 52 52 51 50
55 54 53 53 54 54 54 53 53 54 54 53 53 54 54 53 53 52 51 51 50 50
54 54 52 53 53 53 53 53 53 53 54 54 54 54 54 54 53 52 52 51 51 51
53 53 53 52 52 53 53 53 53 53 53 54 54 54 54 53 53 53 53 53 53 52
54 54 54 53 53 53 53 52 52 52 53 53 53 53 52 53 53 53 53 53 53 53
46 48 49 54 54 53 53 53 52 52 52 51 50 41 46 50 52 53 53 53 53 53
39 40 42 43 44 46 48 47 49 47 52 44 36 36 38 43 47 50 51 52 51 51
36 37 38 39 40 41 41 38 36 36 37 36 34 34 35 39 46 47 48 38 34 36
35 35 36 37 38 37 35 34 32 31 31 31 31 32 34 40 43 44 34 31 30 31
32 33 34 34 35 34 33 31 30 29 30 29 30 30 31 33 35 31 29 27 27 29

GFSNIL_sfc_30mbdewp_105.txt.gz
Dewpoint
57 57 56 55 53 52 54 55 55 57 59 59 59 58 57 57 57 57 57 56 56 55
58 57 55 55 53 53 53 55 55 55 56 59 59 58 57 56 55 56 56 56 57 55
57 57 56 55 53 54 54 54 55 56 57 58 58 58 57 56 56 55 56 56 56 55
58 57 56 54 54 55 55 54 55 56 57 57 57 57 57 56 56 55 55 55 55 55
58 57 55 54 54 55 55 54 54 55 56 56 56 56 55 54 54 54 53 53 54 53
57 56 55 53 54 54 54 54 54 54 55 54 55 55 55 55 54 54 53 54 53 52
56 56 55 52 54 54 54 53 53 53 54 54 53 54 53 54 54 53 53 53 53 53
56 56 54 52 53 54 54 54 53 53 54 54 54 53 53 53 53 53 52 53 52 52
55 54 53 53 53 53 53 53 53 53 54 54 53 43 51 53 53 53 53 52 52 52
45 47 48 53 53 52 53 53 53 53 53 48 39 37 41 46 52 54 54 53 53 54
40 41 42 44 45 45 44 44 44 43 42 39 34 35 37 41 49 51 50 42 41 43
37 38 38 38 38 39 36 35 34 35 35 34 33 33 37 41 46 46 36 33 33 35
36 36 36 36 35 34 33 32 31 30 31 31 30 32 34 42 44 34 30 30 30 31
34 35 35 36 34 33 32 32 31 30 30 29 30 30 32 32 32 30 28 27 27 29

GFSNIL_sfc_30mbdewp_108.txt.gz
Dewpoint
61 59 58 58 58 57 57 58 59 61 60 60 59 58 58 58 58 58 57 56 55 55
60 59 58 58 57 56 57 56 56 58 60 60 59 58 58 57 57 58 57 57 56 55
60 59 58 58 57 55 57 56 56 56 57 60 59 58 58 57 57 57 57 57 57 57
59 59 58 57 56 57 56 56 56 56 56 59 58 58 57 56 56 55 55 56 56 56
59 58 58 57 56 56 56 55 55 56 57 57 58 58 57 56 56 55 55 55 55 55
58 59 57 56 57 56 55 55 55 56 56 56 57 56 56 56 56 55 55 54 54 54
58 58 57 56 56 55 55 55 55 55 55 56 55 55 56 55 54 54 54 54 54 54
58 58 57 56 55 55 55 55 54 55 55 54 54 52 55 55 55 54 54 54 54 54
52 55 56 55 55 55 54 54 54 54 55 54 42 40 47 53 54 53 53 53 53 53
42 44 48 53 53 53 53 54 53 53 46 40 38 37 41 46 53 54 51 49 50 52
38 38 39 41 41 41 41 41 40 40 39 37 34 35 39 44 51 44 39 38 41 43
36 36 35 34 35 35 34 33 32 32 32 33 32 34 38 45 43 36 33 32 33 34
35 34 33 32 32 33 33 32 31 30 30 31 31 33 35 39 35 31 29 29 30 31
32 33 34 33 33 33 32 32 32 31 30 29 30 31 33 33 31 30 28 28 28 30

GFSNIL_sfc_30mbdewp_111.txt.gz
Dewpoint
59 60 59 58 59 59 58 58 60 60 59 58 57 57 57 57 57 57 57 56 56 55
60 60 59 59 59 59 58 58 59 60 60 59 57 57 57 57 57 57 57 56 56 56
61 60 59 59 58 57 57 58 58 60 59 59 58 58 57 56 57 57 57 56 56 55
60 59 60 59 58 57 57 57 56 58 59 59 58 58 57 57 57 56 56 57 56 56
60 60 60 58 57 57 56 56 56 56 57 59 58 58 57 56 56 56 55 56 56 56
59 59 58 58 56 56 56 56 56 56 56 58 58 58 57 56 56 55 55 55 55 55
58 59 58 57 56 56 56 56 56 57 56 57 57 57 57 56 56 56 55 55 55 55
46 58 58 57 56 56 56 55 55 56 56 56 56 54 56 55 55 55 55 55 55 55
40 43 52 56 56 55 55 55 55 55 55 48 43 41 48 55 55 55 54 54 54 54
37 38 38 41 49 52 54 53 52 49 46 41 39 37 43 49 54 54 51 51 53 52
36 36 36 35 35 36 37 39 39 38 37 36 35 36 39 48 45 41 39 39 41 42
34 34 34 33 33 33 32 32 32 32 33 33 33 36 42 42 38 34 32 32 33 34
32 32 33 33 32 32 32 31 31 30 31 31 31 34 35 36 33 30 30 30 31 31
30 31 31 32 32 32 32 32 31 29 29 29 31 31 33 32 31 29 29 28 28 30

GFSNIL_sfc_30mbdewp_114.txt.gz
Dewpoint
61 61 60 60 60 59 59 59 60 60 59 58 57 57 56 55 56 58 57 56 56 55
61 61 60 59 59 59 59 59 60 60 59 58 57 57 56 55 56 57 57 56 56 55
60 60 60 59 59 59 59 59 59 60 59 58 57 57 57 55 56 56 56 57 56 56
60 60 60 59 59 59 58 58 59 59 59 59 57 57 57 56 56 56 56 56 56 56
59 60 60 59 59 59 58 58 58 59 59 58 58 57 57 56 56 56 56 56 56 56
49 58 59 59 58 58 58 57 57 58 58 57 58 57 57 57 56 56 56 56 56 56
43 47 58 57 57 57 57 56 56 56 57 58 58 58 57 57 56 56 56 56 56 56
40 41 45 57 57 57 57 56 56 56 56 57 57 56 57 57 56 55 55 55 55 56
38 38 39 41 52 56 56 56 56 56 56 52 47 46 51 56 56 55 55 54 55 55
35 37 37 36 37 39 41 49 48 47 46 43 40 40 47 50 55 55 54 54 54 54
34 34 35 35 34 33 34 34 34 35 36 36 36 37 43 47 47 44 41 41 42 46
32 32 33 32 33 33 32 32 31 31 31 32 33 36 42 42 39 35 33 33 34 35
30 31 31 32 32 32 32 32 31 30 30 31 31 34 34 34 33 32 30 30 31 32
28 28 29 31 31 32 32 32 31 30 30 30 31 31 33 33 31 30 29 29 29 30

GFSNIL_sfc_30mbdewp_117.txt.gz
Dewpoint
54 62 61 59 60 60 60 60 60 60 60 60 58 58 58 57 57 57 57 57 56 56
55 59 61 61 60 60 60 60 60 60 60 59 58 58 57 56 56 56 56 56 56 56
54 57 61 60 60 60 60 60 59 60 59 58 58 57 56 56 55 55 56 57 56 55
49 59 61 60 60 60 59 59 59 59 59 58 57 57 56 56 56 55 55 56 56 55
45 49 60 60 59 59 59 59 59 59 59 58 57 57 56 55 55 55 55 55 56 55
41 43 47 57 59 59 59 58 59 59 58 58 58 57 56 56 56 55 56 56 56 56
39 40 42 47 57 59 58 58 58 58 58 58 57 57 56 56 56 56 56 56 56 56
36 38 39 40 43 53 58 58 57 58 58 57 57 57 57 57 56 56 56 56 56 56
35 35 36 36 37 37 40 50 57 56 57 56 49 45 55 57 56 56 55 55 55 56
33 34 34 35 35 35 34 35 37 40 43 40 38 39 44 53 56 55 55 55 54 54
30 31 33 33 33 34 34 33 32 33 34 35 35 38 42 45 52 48 45 44 47 51
29 29 30 30 32 32 33 32 32 32 32 32 33 35 37 41 39 36 34 34 35 38
27 28 28 29 29 31 31 32 32 32 31 31 31 34 34 33 32 31 31 31 31 33
25 26 27 28 28 28 29 30 31 30 29 29 30 31 33 33 32 31 29 29 29 30

GFSNIL_sfc_30mbdewp_120.txt.gz
Dewpoint
50 54 58 61 61 61 61 61 61 61 61 61 61 60 60 59 59 59 58 58 57 57
47 51 55 59 61 60 60 56 56 61 61 60 60 59 59 59 58 58 58 57 57 56
45 47 50 56 61 60 60 60 60 60 60 60 59 59 59 58 57 57 57 56 56 56
42 44 47 56 58 60 60 60 59 60 59 60 58 58 58 57 56 56 55 56 56 56
40 42 43 46 51 60 59 59 59 59 59 59 58 58 57 56 56 55 54 55 56 55
37 39 40 42 45 53 59 59 59 59 59 58 58 57 57 56 55 55 55 55 55 55
36 36 38 39 40 42 46 57 58 59 58 58 58 57 57 56 55 55 55 55 55 56
34 35 36 37 38 39 38 40 43 57 58 58 58 57 57 56 56 55 55 56 56 56
32 33 34 34 35 36 36 37 36 38 43 49 44 41 54 56 55 56 56 55 56 56
30 31 32 32 33 34 34 35 35 35 35 35 35 36 43 50 57 56 55 55 55 55
28 28 30 31 31 32 33 32 33 33 33 33 33 35 39 43 51 49 43 43 45 53
27 27 27 28 29 30 30 30 31 30 31 32 32 33 34 36 35 34 33 33 34 36
25 26 26 27 28 29 30 29 29 28 29 29 30 32 33 34 32 31 30 31 31 33
24 25 25 26 27 27 28 28 28 28 29 29 29 29 30 32 32 31 30 30 30 31

GFSNIL_sfc_30mbdewp_123.txt.gz
Dewpoint
48 51 53 56 60 62 62 62 62 62 63 63 62 62 62 62 61 61 60 59 59 58
46 47 48 51 53 59 62 62 63 62 62 62 62 62 62 61 60 60 59 59 59 58
42 43 45 48 52 57 60 62 61 62 62 61 61 61 60 59 60 59 59 59 58 58
39 41 42 44 46 49 57 61 60 60 60 60 60 60 59 58 59 58 58 58 57 57
38 38 39 41 42 43 47 60 60 60 60 60 60 59 58 58 58 58 57 57 57 56
35 36 37 38 39 41 42 46 57 59 59 59 59 59 58 58 58 57 57 57 56 55
34 34 35 36 37 38 40 41 41 44 56 59 58 58 58 58 57 57 57 56 56 55
32 33 34 34 35 35 36 37 39 39 39 40 42 37 39 54 57 56 56 55 56 56
30 31 32 33 33 33 33 34 34 35 36 36 36 35 37 42 55 56 55 55 55 56
29 29 30 30 31 32 32 31 31 31 33 32 32 34 35 40 48 55 56 56 56 56
27 27 28 29 30 31 31 30 30 30 30 30 30 32 34 35 36 35 35 36 38 46
26 26 27 28 28 30 30 30 30 29 29 29 29 31 32 34 34 33 32 32 33 34
25 25 26 27 28 29 29 29 29 29 29 29 28 30 30 30 32 32 31 31 31 31
24 25 25 26 27 27 27 27 27 27 28 27 28 28 29 28 26 26 26 26 26 29